Tracking 19854 objects as of 24-Sep-2019
HD Live streaming from Space Station
objects crossing your sky now

CZ-4B DEB

Track CZ-4B DEB now!
10-day predictions


NORAD ID: 29538
Int'l Code: 2006-015E
Perigee: 595.1 km
Apogee: 801.8 km
Inclination: 97.9 °
Period: 98.6 minutes
Semi major axis: 7069 km
RCS: 0.0184 m2 (small)
Launch date: April 26, 2006
Source: People's Republic of China (PRC)
Launch site: Taiyaun Space Center, China (TSC)

Note: This is SATELLITE DEBRIS
aabbcc
Your satellite tracking list
Your tracking list is empty




NASA's NSSDC Master Catalog

Two Line Element Set (TLE):
1 29538U 06015E   19267.19503989  .00000267  00000-0  56234-4 0  9997
2 29538  97.9131  38.0816 0146256  59.8142 301.7454 14.60576214706663
Source of the keplerian elements: AFSPC